Location: Katherine
(14.4670°S, 132.2670°E)
Time: 08:05:22
(UTC+09:30)

ISS - Pass Details

Date: 16 July 2018
Orbit: 402 x 408 km, 51.6° (Epoch: 19 July)

Event Time Altitude Azimuth Distance (km) Brightness Sun altitude
Rises 18:46:57 0° 191° (SSW) 2,325 -0.1 -5.2°
Reaches altitude 10° 18:49:53 10° 163° (SSE) 1,460 -1.4 -5.9°
Maximum altitude 18:51:33 13° 132° (SE) 1,275 -1.9 -6.2°
Drops below altitude 10° 18:53:13 10° 101° (E) 1,454 -1.7 -6.6°
Enters shadow 18:54:06 - 89° (E) 1,665 -1.3 -6.8°
